Regional Weather Roundup
Issued by NWS

Home | Current Version | Previous Version | Text Only | Print | Product List | Glossary On
Versions: 1 2 3 4 5 6 7 8 9 10 11 12 13 14 15 16 17 18 19 20 21 22 23 24 25 26 27 28 29 30 31 32 33 34 35 36 37 38 39 40 41 42 43 44 45 46 47 48 49 50
000
ASUS43 KLOT 010909
RWRIL

ILLINOIS REGIONAL WEATHER ROUNDUP
NATIONAL WEATHER SERVICE CHICAGO/ROMEOVILLE IL
400 AM CDT FRI JUL 01 2016

NOTE: "FAIR" INDICATES FEW OR NO CLOUDS BELOW 12,000 FEET WITH NO
SIGNIFICANT WEATHER AND/OR OBSTRUCTIONS TO VISIBILITY.

* THESE STATIONS ARE NOT UNDER NWS QUALITY CONTROL. THEY ALSO MAY NOT
  REPORT WEATHER SUCH AS PRECIPITATION OR FOG.

ILZ001-002-007-009-015-016-024-011000-
NORTHWEST ILLINOIS

CITY           SKY/WX    TMP DP  RH WIND       PRES   REMARKS
MOLINE         CLEAR     65  59  81 N5        29.99R
STERLING*      CLEAR     62  60  93 N7        29.98R
SAVANNA*       CLEAR     61  61 100 N7        29.99R
$$

ILZ003-004-008-010-011-017-018-011000-
NORTH CENTRAL ILLINOIS

CITY           SKY/WX    TMP DP  RH WIND       PRES   REMARKS
ROCKFORD       CLOUDY    62  60  93 N9        29.99S
FREEPORT*      CLEAR     58  56  94 NW7       30.00R
ROCHELLE*      CLEAR     60  59  97 NW6       29.97R
DE KALB*       CLOUDY    61  60  96 N12       29.97R FOG
$$

ILZ005-006-012>014-019>023-011000-
NORTHEAST ILLINOIS

CITY           SKY/WX    TMP DP  RH WIND       PRES   REMARKS
CHICAGO-OHARE  MOCLDY    63  60  90 NW10      29.93R
CHICAGO-MIDWAY PTCLDY    65  59  81 NW7       29.92R
AURORA         MOCLDY    62  60  93 NW12      29.95R
LANSING*       CLEAR     65  58  79 NW3       29.92R
JOLIET*        CLEAR     64  60  87 N6        29.94R
WAUKEGAN       PTCLDY    62  60  93 NW5       29.94R
DUPAGE AIRPORT PTCLDY    62  58  86 NW9       29.94R
KANKAKEE*      PTCLDY    64  63  95 CALM      29.93R
WHEELING       CLEAR     63  59  87 NW8       29.95R
MORRIS*        CLEAR     61  59  92 CALM      29.93R
ROMEOVILLE*    CLEAR     62  57  86 NW6       29.94R
NORTHERLY ISL    N/A     67  59  75 NW12        N/A
$$

LMZ740>746-011000-
SOUTHERN LAKE MICHIGAN

STATION/POSITION SKY/WX   TEMP    WIND        PRES    VSBY  WAVE
                          AIR SEA DIR/SP/G                  HT/PER
                          (F)     (DEG/KT/KT) (MB)    (MI)  (FT/S)
SOUTHERN BUOY              63 63  340/ 14/ 16 1012.3R         1/ 4
WILMETTE HARBOR            66 69  360/ 14/ 17   N/A           2/ 3
HARRISON CRIB              68     320/ 11/ 13   N/A
BURNHAM HARBOR             66     330/ 10/ 12   N/A
CALUMET HARBOR             68     300/  4/  9 1012.2R
BURNS HARBOR               69     330/ 15/ 20 1012.9R
MICHIGAN CITY              68     290/ 19/ 22   N/A
MICHIGAN CITY 6N           67 69  350/ 12/ 14   N/A           2/ 3
ST. JOSEPH                 66 69  340/ 10/ 14   N/A           2/ 3
$$

ILZ025>027-034>036-040-047-049-050-058-095>099-011000-
WEST-CENTRAL ILLINOIS

CITY           SKY/WX    TMP DP  RH WIND       PRES   REMARKS
QUINCY         PTCLDY    66  65  96 N10       29.98R FOG
GALESBURG*     CLEAR     62  59  90 N8        29.98R
MACOMB*        CLEAR     64  64  97 N9        30.00R
JACKSONVILLE*  MOCLDY    65  64  96 NW6       29.96R FOG
PITTSFIELD*    CLOUDY    68  67  98 NW7       29.99R FOG
$$

ILZ028>032-037-038-041>044-048-051>054-059>061-011000-
CENTRAL ILLINOIS

CITY           SKY/WX    TMP DP  RH WIND       PRES   REMARKS
PONTIAC        PTCLDY    65  64  99 NW3       29.95S
BLOOMINGTON    PTCLDY    67  65  93 N10       29.95R
DECATUR        PTCLDY    71  66  84 NW8       29.92R
PEORIA         CLEAR     65  62  90 N5        29.96R
LACON*         CLEAR     62  61  96 N6        29.95S
LINCOLN*       CLEAR     68  67  98 NW5       29.94R FOG
SPRINGFIELD    PTCLDY    69  67  93 NW7       29.94R
TAYLORVILLE    CLEAR     68  67  98 NW6       29.93R FOG
$$

ILZ033-039-045-046-055>057-062-063-011000-
EAST-CENTRAL ILLINOIS

CITY           SKY/WX    TMP DP  RH WIND       PRES   REMARKS
CHAMPAIGN      CLOUDY    68  66  93 N3        29.93S
RANTOUL*       CLOUDY    70  68  93 NW6       29.93S
MATTOON        CLOUDY    69  64  84 CALM      29.91R
PARIS*         PTCLDY    66  64  96 CALM      29.91S
$$

ILZ079-100>102-011000-
SOUTHWEST ILLINOIS

CITY           SKY/WX    TMP DP  RH WIND       PRES   REMARKS
ALTON          MOCLDY    66  66  97 W10       29.95R
BELLEVILLE     CLEAR     67  67 100 W5        29.92R
CAHOKIA*       PTCLDY    69  66  90 CALM      29.94R
SPARTA*        CLOUDY    69  68  95 CALM      29.93F
$$

ILZ064>066-069>071-074>076-080>082-084>086-088>090-092>094-011000-
SOUTH-CENTRAL ILLINOIS

CITY           SKY/WX    TMP DP  RH WIND       PRES   REMARKS
CARBONDALE     CLOUDY    69  66  90 S5        29.92F
CAIRO*         CLOUDY    73  70  93 CALM      29.93S
EFFINGHAM*     CLOUDY    68  68 100 CALM      29.93S FOG
MARION         CLOUDY    70  70 100 CALM      29.93F
MT. VERNON     CLOUDY    70  64  83 SW7       29.90F
CENTRALIA*     CLOUDY    68  66  94 W5        29.89F
SALEM*         CLOUDY    71  65  83 SW6       29.89F
METROPOLIS*    DRIZZLE   71  68  90 CALM      29.95S
$$

ILZ067-068-072-073-078-083-087-091-011000-
SOUTHEAST ILLINOIS

CITY           SKY/WX    TMP DP  RH WIND       PRES   REMARKS
LAWRENCEVILLE  CLOUDY    70  64  81 S5        29.92R
FLORA*         CLOUDY    73  68  86 SW7       29.90F
HARRISBURG*    CLOUDY    71  68  90 SW5       29.92F
ROBINSON*      CLOUDY    68  64  87 CALM      29.92R
CARMI*         RAIN      70  68  94 S3        29.91F
$$

ABBREVIATIONS USED IN REMARKS
   TC - TEMPERATURE IN CELSIUS
  WCI - WIND CHILL INDEX
   HX - HEAT INDEX
  VSB - VISIBILITY
$$




USA.gov is the U.S. government's official web portal to all federal, state and local government web resources and services.